This is the latest recevied weather packets stored in our database for station/object K4OBI. If no packets are shown the sender has not sent any weather packets the latest 10 day(s).
| Time | Temp. | Humidity | Pressure | Rain* | Wind** | Luminosity | Snow |
|---|---|---|---|---|---|---|---|
| 1777314410 | 21.11° C | 52% | 1025.3 hPa | 0 mm | - | - | - |
| 1777314350 | 21.11° C | 55% | 1025.3 hPa | 0 mm | - | - | - |
| 1777314291 | 20.56° C | 55% | 1025.3 hPa | 0 mm | - | - | - |
| 1777314231 | 20.56° C | 52% | 1025.2 hPa | 0 mm | - | - | - |
| 1777314174 | 20.56° C | 53% | 1025.3 hPa | 0 mm | - | - | - |
| 1777314105 | 20.56° C | 53% | 1025.3 hPa | 0 mm | - | - | - |
| 1777314043 | 20.56° C | 50% | 1025.2 hPa | 0 mm | - | - | - |
| 1777313987 | 21.11° C | 51% | 1025.4 hPa | 0 mm | - | - | - |
| 1777313924 | 21.11° C | 53% | 1025.3 hPa | 0 mm | - | - | - |
| 1777313867 | 21.11° C | 54% | 1025.3 hPa | 0 mm | - | - | - |
| 1777313800 | 21.11° C | 52% | 1025.3 hPa | 0 mm | - | - | - |
| 1777313737 | 21.11° C | 54% | 1025.2 hPa | 0 mm | - | - | - |
| 1777313678 | 21.11° C | 52% | 1025.3 hPa | 0 mm | - | - | - |
| 1777313617 | 21.11° C | 55% | 1025.3 hPa | 0 mm | - | - | - |
| 1777313561 | 21.11° C | 50% | 1025.2 hPa | 0 mm | - | - | - |
| 1777313491 | 21.11° C | 51% | 1025.3 hPa | 0 mm | - | - | - |
| 1777313431 | 21.11° C | 51% | 1025.4 hPa | 0 mm | - | - | - |
| 1777313372 | 21.11° C | 52% | 1025.3 hPa | 0 mm | - | - | - |
| 1777313311 | 21.11° C | 56% | 1025.3 hPa | 0 mm | - | - | - |
| 1777313256 | 21.11° C | 53% | 1025.4 hPa | 0 mm | - | - | - |
| 1777313187 | 21.11° C | 55% | 1025.3 hPa | 0 mm | - | - | - |
| 1777313126 | 21.11° C | 55% | 1025.4 hPa | 0 mm | - | - | - |
| 1777313065 | 21.11° C | 55% | 1025.3 hPa | 0 mm | - | - | - |
| 1777313005 | 20.56° C | 52% | 1025.4 hPa | 0 mm | - | - | - |
| 1777312950 | 20.56° C | 54% | 1025.4 hPa | 0 mm | - | - | - |
* Rain latest hour (hover to see other rain measurements)
** Current wind speed in m/s (hover to see current wind gust speed)